TimePST,TemperatureF,Dew PointF,Humidity,Sea Level PressureIn,VisibilityMPH,Wind Direction,Wind SpeedMPH,Gust SpeedMPH,PrecipitationIn,Events,Conditions,WindDirDegrees,DateUTC
12:53 AM,44.1,36.0,73,30.19,10.0,Calm,Calm,-,N/A,,Clear,0,2012-11-20 08:53:00
1:53 AM,41.0,36.0,82,30.19,10.0,West,4.6,-,N/A,,Clear,270,2012-11-20 09:53:00
2:53 AM,41.0,35.1,79,30.18,10.0,Calm,Calm,-,N/A,,Clear,0,2012-11-20 10:53:00
3:53 AM,39.9,36.0,86,30.17,10.0,SSW,6.9,-,N/A,,Clear,200,2012-11-20 11:53:00
4:53 AM,39.0,35.1,86,30.19,10.0,SSW,4.6,-,N/A,,Clear,200,2012-11-20 12:53:00
5:53 AM,37.9,34.0,86,30.20,10.0,South,5.8,-,N/A,,Clear,190,2012-11-20 13:53:00
6:53 AM,37.9,34.0,86,30.21,10.0,SSW,4.6,-,N/A,,Clear,210,2012-11-20 14:53:00
7:53 AM,46.0,37.9,73,30.20,10.0,Calm,Calm,-,N/A,,Clear,0,2012-11-20 15:53:00
8:53 AM,53.1,37.9,57,30.20,10.0,NE,3.5,-,N/A,,Clear,50,2012-11-20 16:53:00
9:53 AM,55.9,37.0,49,30.19,10.0,NE,3.5,-,N/A,,Clear,40,2012-11-20 17:53:00
10:53 AM,59.0,35.6,42,30.18,10.0,Calm,Calm,-,N/A,,Clear,0,2012-11-20 18:53:00
11:53 AM,63.0,37.9,40,30.12,10.0,North,4.6,-,N/A,,Clear,10,2012-11-20 19:53:00
12:53 PM,64.9,37.9,37,30.09,10.0,NNE,3.5,-,N/A,,Clear,30,2012-11-20 20:53:00
1:53 PM,66.0,37.9,36,30.07,10.0,Calm,Calm,-,N/A,,Clear,0,2012-11-20 21:53:00
2:53 PM,68.0,37.0,32,30.06,10.0,Calm,Calm,-,N/A,,Clear,0,2012-11-20 22:53:00
3:53 PM,66.0,36.0,33,30.06,10.0,ESE,3.5,-,N/A,,Clear,110,2012-11-20 23:53:00
4:53 PM,62.1,36.0,38,30.06,10.0,ESE,3.5,-,N/A,,Clear,120,2012-11-21 00:53:00
5:53 PM,57.9,35.1,42,30.07,10.0,WSW,3.5,-,N/A,,Clear,240,2012-11-21 01:53:00
6:53 PM,54.0,34.0,47,30.10,10.0,SE,3.5,-,N/A,,Clear,140,2012-11-21 02:53:00
7:53 PM,50.0,36.0,59,30.10,10.0,SSW,6.9,-,N/A,,Clear,200,2012-11-21 03:53:00
8:53 PM,48.9,35.1,59,30.09,10.0,Calm,Calm,-,N/A,,Clear,0,2012-11-21 04:53:00
9:53 PM,45.0,36.0,71,30.09,10.0,SE,3.5,-,N/A,,Clear,130,2012-11-21 05:53:00
10:53 PM,46.0,35.1,66,30.08,10.0,South,8.1,-,N/A,,Clear,190,2012-11-21 06:53:00
11:53 PM,48.0,35.1,61,30.06,10.0,Calm,Calm,-,N/A,,Clear,0,2012-11-21 07:53:00